Printer-friendly version

IAU Minor Planet Center

Minor Planet Center

MPEC 2001-S37: 2001 SE170

The following Minor Planet Electronic Circular may be linked-to from your own Web pages, but must not otherwise be redistributed electronically.


Read MPEC 2001-S36 Read MPEC 2001-S38


M.P.E.C. 2001-S37                                Issued 2001 Sept. 25, 19:08 UT

     The Minor Planet Electronic Circulars contain information on unusual
         minor planets and routine data on comets.  They are published
   on behalf of Commission 20 of the International Astronomical Union by the
          Minor Planet Center, Smithsonian Astrophysical Observatory,
                          Cambridge, MA 02138, U.S.A.

             Prepared using the Tamkin Foundation Computer Network

                              MPC@CFA.HARVARD.EDU
          URL http://cfa-www.harvard.edu/iau/mpc.html  ISSN 1523-6714

                                  2001 SE170

Observations:
     K01SH0E* C2001 09 20.42285 04 53 13.92 +32 03 04.9          19.4        704
     K01SH0E  C2001 09 20.43722 04 53 15.29 +32 02 40.7          19.4        704
     K01SH0E  C2001 09 20.45197 04 53 16.62 +32 02 16.2          19.6        704
     K01SH0E  C2001 09 20.46655 04 53 17.96 +32 01 51.5          20.0        704
     K01SH0E  C2001 09 21.39097 04 54 51.70 +31 35 26.8          19.4        704
     K01SH0E  C2001 09 21.40385 04 54 52.90 +31 35 05.4          19.2        704
     K01SH0E  C2001 09 21.42065 04 54 54.47 +31 34 35.3          19.7        704
     K01SH0E  C2001 09 21.43510 04 54 55.93 +31 34 10.0          19.5        704
     K01SH0E  C2001 09 21.44659 04 54 56.85 +31 33 52.8          18.7        704
     K01SH0E  C2001 09 21.44949 04 54 57.15 +31 33 46.5          19.7        704
     K01SH0E  C2001 09 21.46085 04 54 58.18 +31 33 28.4          19.2        704
     K01SH0E  C2001 09 22.40752 04 56 29.70 +31 06 05.0          19.4        704
     K01SH0E  C2001 09 22.42163 04 56 31.08 +31 05 39.0          19.7        704
     K01SH0E  C2001 09 22.43601 04 56 32.27 +31 05 15.3          19.4        704
     K01SH0E  C2001 09 22.45015 04 56 33.53 +31 04 50.3          19.9        704
     K01SH0E  C2001 09 22.46429 04 56 34.75 +31 04 25.4          19.6        704
     K01SH0E  C2001 09 23.02670 04 57 27.39 +30 47 53.2                      557
     K01SH0E  C2001 09 23.03287 04 57 27.93 +30 47 43.5                      557
     K01SH0E  C2001 09 23.04424 04 57 28.95 +30 47 23.0                      557
     K01SH0E 1C2001 09 23.48459 04 58 08.63 +30 34 27.3                      658
     K01SH0E 1C2001 09 23.48868 04 58 09.01 +30 34 20.3                      658
     K01SH0E 1C2001 09 23.49111 04 58 09.16 +30 34 15.9                      658
     K01SH0E  C2001 09 23.75943 04 58 33.18 +30 26 23.3          19.4 V      402
     K01SH0E  C2001 09 23.76075 04 58 33.30 +30 26 21.8                      402
     K01SH0E  C2001 09 23.76207 04 58 33.39 +30 26 18.5                      402
     K01SH0E  C2001 09 23.76339 04 58 33.43 +30 26 15.8                      402
     K01SH0E  C2001 09 24.40502 04 59 29.55 +30 07 12.4          18.7        704
     K01SH0E  C2001 09 24.40588 04 59 29.67 +30 07 10.6          18.9        704
     K01SH0E  C2001 09 24.43250 04 59 31.81 +30 06 22.0          18.9        704
     K01SH0E  C2001 09 24.43561 04 59 32.07 +30 06 18.1          19.6        704
     K01SH0E  C2001 09 24.43647 04 59 32.12 +30 06 16.2          19.2        704
     K01SH0E  C2001 09 24.43656 04 59 32.11 +30 06 16.4          19.6        704
     K01SH0E  C2001 09 24.44873 04 59 33.13 +30 05 53.4          19.6        704
     K01SH0E  C2001 09 24.45050 04 59 33.22 +30 05 51.4          19.2        704
     K01SH0E  C2001 09 24.45136 04 59 33.32 +30 05 49.4          19.3        704
     K01SH0E  C2001 09 24.45300 04 59 33.41 +30 05 47.1          19.3        704
     K01SH0E  C2001 09 24.46408 04 59 34.33 +30 05 26.5          19.4        704
     K01SH0E  C2001 09 24.46538 04 59 34.37 +30 05 24.8          19.2        704
     K01SH0E  C2001 09 24.46624 04 59 34.52 +30 05 22.4          19.3        704
     K01SH0E  C2001 09 24.46873 04 59 34.73 +30 05 19.5          19.3        704
     K01SH0E  C2001 09 24.47972 04 59 35.64 +30 04 58.9          19.6        704
     K01SH0E  C2001 09 24.48555 04 59 35.98 +30 04 49.1          18.9        704
     K01SH0E 1C2001 09 24.51317 04 59 38.49 +30 03 55.6                      658
     K01SH0E 1C2001 09 24.51831 04 59 38.89 +30 03 46.3                      658
     K01SH0E 1C2001 09 24.52122 04 59 39.12 +30 03 41.1                      658
     K01SH0E  C2001 09 25.44884 05 00 56.38 +29 35 50.7          18.7 R      918
     K01SH0E  C2001 09 25.45264 05 00 56.65 +29 35 43.2          19.0 R      918
     K01SH0E  C2001 09 25.45806 05 00 57.08 +29 35 33.4          19.0 R      918
     K01SH0E  C2001 09 25.46225 05 00 57.41 +29 35 25.5          19.1 R      918

Observer details:
402 Dynic Astronomical Observatory.  Observer A. Sugie.  0.60-m f/3.7 reflector
    + CCD.
557 Ondrejov.  Observers P. Pravec, P. Kusnirak.  0.65-m f/3.6 reflector + CCD.
658 National Research Council of Canada.  Observer D. D. Balam.  1.82-m
    Plaskett reflector + CCD.
704 Lincoln Laboratory ETS, New Mexico.  Observers M. Blythe, F. Shelly,
    M. Bezpalko, R. Huber, L. Manguso, S. Adams.  Measurers J. Stuart,
    R. Sayer, J. B. Evans, H. Viggh.  1.0-m f/2.15 reflector + CCD.
918 Badlands Observatory, Quinn.  Observer R. Dyvig.  0.66-m f/4.8 reflector
    + CCD.

Orbital elements:
2001 SE170
Epoch 2001 Sept. 8.0 TT = JDT 2452160.5                 Spahr
M  11.38450              (2000.0)            P               Q
n   0.32353427     Peri.  124.23931     +0.91658599     +0.34501366
a   2.1014667      Node   216.78016     -0.37374759     +0.91887405
e   0.4480637      Incl.   19.72479     +0.14206637     +0.19140545
P   3.05           H   17.5           G   0.15
From 49 observations 2001 Sept. 20-25.

Ephemeris:
2001 SE170               a,e,i = 2.10, 0.45, 20                  q = 1.1599
Date    TT    R. A. (2000) Decl.     Delta      r     Elong.  Phase     V
2001 09 18    04 48.85   +33 10.6    0.595    1.254   100.0    52.1    18.8
2001 09 28    05 04.15   +28 17.8    0.577    1.295   107.2    47.7    18.7
2001 10 08    05 12.28   +22 52.0    0.562    1.342   115.7    42.1    18.5
2001 10 18    05 13.34   +17 03.7    0.554    1.394   125.6    35.5    18.4
2001 10 28    05 07.90   +11 10.6    0.556    1.448   136.4    28.3    18.3
2001 11 07    04 57.35   +05 40.1    0.574    1.504   146.8    21.2    18.2
2001 11 17    04 43.81   +01 02.2    0.611    1.562   154.4    15.9    18.3
2001 11 27    04 29.91   -02 20.4    0.669    1.621   156.1    14.3    18.5
2001 12 07    04 18.00   -04 22.7    0.748    1.681   151.6    16.2    18.9
2001 12 17    04 09.49   -05 14.5    0.845    1.740   144.1    19.4    19.3
2001 12 27    04 04.94   -05 12.3    0.958    1.799   135.9    22.4    19.8
2002 01 06    04 04.22   -04 33.2    1.085    1.858   127.8    24.7    20.2
2002 01 16    04 06.87   -03 30.9    1.224    1.915   120.0    26.4    20.5
2002 01 26    04 12.38   -02 15.7    1.371    1.972   112.7    27.4    20.9
2002 02 05    04 20.24   -00 55.0    1.525    2.028   105.7    27.9    21.2
2002 02 15    04 29.98   +00 26.1    1.684    2.082    99.0    27.9    21.5
2002 02 25    04 41.28   +01 44.2    1.847    2.135    92.6    27.6    21.7
2002 03 07    04 53.79   +02 56.7    2.011    2.187    86.4    26.9    21.9
2002 03 17    05 07.30   +04 02.0    2.175    2.237    80.5    26.0    22.1

Timothy B. Spahr             (C) Copyright 2001 MPC           M.P.E.C. 2001-S37

Read MPEC 2001-S36 Read MPEC 2001-S38


Our Web policy. Index to the CBAT/MPC/ICQ pages.


Valid HTML 4.01!